{"data":{"norad_id":67183,"epoch":"2026-05-24T23:09:57.472128Z","epoch_age_seconds":71876,"freshness":"FRESH","line1":"1 67183U 25303W   26144.96524852  .00011700  00000+0  43387-3 0  9992","line2":"2 67183  42.9981 239.6754 0001619 275.7556  84.3111 15.27590714 24409","mean_motion":15.27590714,"eccentricity":0.0001619,"inclination_deg":42.9981,"raan_deg":239.6754,"arg_perigee_deg":275.7556,"mean_anomaly_deg":84.3111,"bstar":0.00043387,"rev_number":2440,"period_min":94.266087558843,"perigee_km":481.90619382185,"apogee_km":484.12783549179,"semimajor_km":6861.1540146568,"source":"CELESTRAK","updated_at":"2026-05-25T13:38:21.484020Z"}}